Location: Capvern
(43.1036°N, 0.3160°E)
Time: 21:57:13
(UTC+00:00)

HJ-1C - Pass Details

Date: 16 October 2021
Orbit: 422 x 433 km, 97.1° (Epoch: 04 December)

Event Time Altitude Azimuth Distance (km) Brightness Sun altitude
Exits shadow 18:49:04 38° 155° (SSE) 668 4.0 -18.1°
Maximum altitude 18:50:10 76° 77° (ENE) 443 3.1 -18.3°
Drops below altitude 10° 18:53:25 10° 351° (N) 1,523 6.2 -18.9°
Sets 18:55:27 0° 350° (N) 2,396 7.3 -19.2°
